• In Moldova, Republic
  • List of Countries
  • For 7 days
  • Water Temperature
  • Satellite Maps
  • Weather Map
  • Weather Widgets
  • user-avatar
    Login

    Hourly Weather Konstantyna

    Today, 25 May, Thursday

    Time Temperature Precipitation Wind Pressure Humidity
    00:00 +16°C° 0 mm 1 mps 710 mmHg 81%
    01:00 +16°C° 0 mm 1 mps 710 mmHg 81%
    02:00 +15°C° 0 mm 1 mps 709 mmHg 82%
    03:00 +15°C° 0 mm 1 mps 709 mmHg 82%
    04:00 +18°C° 0 mm 1 mps 710 mmHg 73%
    05:00 +20°C° 0 mm 1 mps 710 mmHg 65%
    06:00 +23°C° 0 mm 1 mps 710 mmHg 54%
    07:00 +25°C° 0 mm 1 mps 711 mmHg 47%
    08:00 +28°C° 0 mm 2 mps 711 mmHg 40%
    09:00 +30°C° 0 mm 2 mps 711 mmHg 33%
    10:00 +31°C° 0 mm 3 mps 711 mmHg 31%
    11:00 +33°C° 0 mm 3 mps 711 mmHg 28%
    12:00 +34°C° 0 mm 4 mps 711 mmHg 26%
    13:00 +33°C° 0 mm 4 mps 711 mmHg 27%
    14:00 +33°C° 0 mm 3 mps 710 mmHg 29%
    15:00 +31°C° 0 mm 3 mps 710 mmHg 30%
    16:00 +29°C° 0 mm 3 mps 710 mmHg 35%
    17:00 +27°C° 0 mm 2 mps 709 mmHg 41%
    18:00 +26°C° 0 mm 2 mps 709 mmHg 46%
    19:00 +23°C° 0 mm 1 mps 709 mmHg 54%
    20:00 +21°C° 0 mm 1 mps 709 mmHg 62%
    21:00 +18°C° 0 mm 1 mps 709 mmHg 70%
    22:00 +18°C° 0 mm 1 mps 709 mmHg 70%
    23:00 +18°C° 0 mm 1 mps 709 mmHg 71%

    Tomorrow, 26 May, Friday

    Time Temperature Precipitation Wind Pressure Humidity
    00:00 +16°C° 0 mm 0 mps 709 mmHg 71%
    01:00 +18°C° 0 mm 1 mps 709 mmHg 70%
    02:00 +19°C° 0 mm 1 mps 708 mmHg 68%
    03:00 +19°C° 0 mm 1 mps 708 mmHg 67%
    04:00 +20°C° 0 mm 1 mps 708 mmHg 63%
    05:00 +22°C° 0 mm 1 mps 708 mmHg 60%
    06:00 +23°C° 0 mm 1 mps 709 mmHg 56%
    07:00 +26°C° 0 mm 1 mps 709 mmHg 48%
    08:00 +28°C° 0 mm 1 mps 710 mmHg 40%
    09:00 +31°C° 0 mm 1 mps 710 mmHg 32%
    10:00 +32°C° 0 mm 2 mps 710 mmHg 30%
    11:00 +34°C° 0 mm 2 mps 710 mmHg 27%
    12:00 +35°C° 0 mm 3 mps 710 mmHg 24%
    13:00 +34°C° 0 mm 3 mps 709 mmHg 25%
    14:00 +34°C° 0 mm 3 mps 709 mmHg 25%
    15:00 +34°C° 0 mm 4 mps 709 mmHg 25%
    16:00 +31°C° 0 mm 3 mps 709 mmHg 30%
    17:00 +29°C° 0 mm 2 mps 708 mmHg 36%
    18:00 +27°C° 0 mm 2 mps 708 mmHg 41%
    19:00 +24°C° 0 mm 2 mps 708 mmHg 49%
    20:00 +22°C° 0 mm 1 mps 708 mmHg 57%
    21:00 +19°C° 0 mm 1 mps 709 mmHg 66%
    22:00 +20°C° 0 mm 1 mps 709 mmHg 64%
    23:00 +20°C° 0 mm 1 mps 709 mmHg 62%

    Day after tomorrow, 27 May, Saturday

    Time Temperature Precipitation Wind Pressure Humidity
    00:00 +20°C° 0 mm 1 mps 709 mmHg 60%
    01:00 +20°C° 0 mm 1 mps 709 mmHg 60%
    02:00 +20°C° 0 mm 1 mps 708 mmHg 61%
    03:00 +20°C° 0 mm 1 mps 708 mmHg 62%
    04:00 +21°C° 0 mm 1 mps 708 mmHg 57%
    05:00 +23°C° 0 mm 1 mps 709 mmHg 53%
    06:00 +24°C° 0 mm 1 mps 709 mmHg 49%
    07:00 +27°C° 0 mm 1 mps 710 mmHg 43%
    08:00 +29°C° 0 mm 1 mps 711 mmHg 37%
    09:00 +31°C° 0 mm 1 mps 711 mmHg 31%
    10:00 +32°C° 0 mm 2 mps 711 mmHg 29%
    11:00 +34°C° 0 mm 2 mps 711 mmHg 26%
    12:00 +35°C° 0 mm 3 mps 711 mmHg 24%
    13:00 +35°C° 0.1 mm 3 mps 711 mmHg 25%
    14:00 +34°C° 0.1 mm 3 mps 711 mmHg 27%
    15:00 +34°C° 0.1 mm 3 mps 711 mmHg 28%
    16:00 +31°C° 0.1 mm 3 mps 711 mmHg 33%
    17:00 +29°C° 0.1 mm 2 mps 711 mmHg 38%
    18:00 +27°C° 0.1 mm 2 mps 710 mmHg 43%
    19:00 +25°C° 0 mm 2 mps 710 mmHg 51%
    20:00 +22°C° 0 mm 1 mps 711 mmHg 58%
    21:00 +20°C° 0 mm 1 mps 711 mmHg 66%
    22:00 +20°C° 0 mm 1 mps 710 mmHg 67%
    23:00 +19°C° 0 mm 1 mps 710 mmHg 68%

    28 May, Sunday

    Time Temperature Precipitation Wind Pressure Humidity
    00:00 +19°C° 0 mm 1 mps 710 mmHg 69%
    01:00 +18°C° 0 mm 1 mps 710 mmHg 69%
    02:00 +18°C° 0 mm 1 mps 710 mmHg 69%
    03:00 +18°C° 0 mm 1 mps 709 mmHg 69%
    04:00 +20°C° 0 mm 1 mps 710 mmHg 63%
    05:00 +21°C° 0 mm 1 mps 711 mmHg 56%
    06:00 +23°C° 0 mm 1 mps 711 mmHg 50%
    07:00 +26°C° 0 mm 1 mps 712 mmHg 43%
    08:00 +29°C° 0 mm 1 mps 712 mmHg 36%
    09:00 +31°C° 0 mm 1 mps 712 mmHg 30%
    10:00 +32°C° 0 mm 2 mps 712 mmHg 27%
    11:00 +35°C° 0 mm 2 mps 712 mmHg 24%
    12:00 +36°C° 0 mm 3 mps 712 mmHg 21%
    13:00 +35°C° 0.1 mm 3 mps 712 mmHg 22%
    14:00 +35°C° 0.1 mm 3 mps 711 mmHg 23%
    15:00 +34°C° 0.1 mm 3 mps 711 mmHg 24%
    16:00 +31°C° 0 mm 3 mps 711 mmHg 29%
    17:00 +29°C° 0 mm 2 mps 711 mmHg 34%
    18:00 +27°C° 0 mm 2 mps 710 mmHg 40%
    19:00 +25°C° 0 mm 2 mps 710 mmHg 46%
    20:00 +21°C° 0 mm 2 mps 710 mmHg 52%
    21:00 +20°C° 0 mm 1 mps 710 mmHg 59%
    22:00 +20°C° 0 mm 1 mps 710 mmHg 59%
    23:00 +19°C° 0 mm 1 mps 710 mmHg 59%

    29 May, Monday

    Time Temperature Precipitation Wind Pressure Humidity
    00:00 +19°C° 0 mm 1 mps 709 mmHg 60%
    01:00 +19°C° 0 mm 1 mps 709 mmHg 59%
    02:00 +19°C° 0 mm 1 mps 709 mmHg 58%
    03:00 +19°C° 0 mm 1 mps 708 mmHg 58%
    04:00 +20°C° 0 mm 1 mps 709 mmHg 55%
    05:00 +21°C° 0 mm 1 mps 709 mmHg 53%
    06:00 +23°C° 0 mm 1 mps 709 mmHg 50%
    07:00 +25°C° 0 mm 1 mps 709 mmHg 44%
    08:00 +28°C° 0 mm 2 mps 710 mmHg 38%
    09:00 +31°C° 0 mm 2 mps 710 mmHg 32%
    10:00 +32°C° 0 mm 2 mps 710 mmHg 29%
    11:00 +34°C° 0 mm 2 mps 710 mmHg 26%
    12:00 +36°C° 0 mm 3 mps 709 mmHg 24%
    13:00 +34°C° 0.2 mm 3 mps 709 mmHg 26%
    14:00 +33°C° 0.2 mm 3 mps 709 mmHg 29%
    15:00 +31°C° 0.2 mm 3 mps 708 mmHg 32%
    16:00 +30°C° 0.1 mm 3 mps 708 mmHg 37%
    17:00 +28°C° 0.1 mm 2 mps 708 mmHg 43%
    18:00 +27°C° 0.1 mm 1 mps 708 mmHg 48%
    19:00 +25°C° 0.2 mm 1 mps 708 mmHg 55%
    20:00 +21°C° 0.2 mm 2 mps 708 mmHg 63%
    21:00 +19°C° 0.2 mm 2 mps 708 mmHg 70%
    22:00 +20°C° 0 mm 1 mps 708 mmHg 72%
    23:00 +20°C° 0 mm 1 mps 708 mmHg 75%

    30 May, Tuesday

    Time Temperature Precipitation Wind Pressure Humidity
    00:00 +19°C° 0 mm 1 mps 707 mmHg 77%
    01:00 +19°C° 0 mm 1 mps 707 mmHg 77%
    02:00 +19°C° 0 mm 1 mps 707 mmHg 77%
    03:00 +18°C° 0 mm 1 mps 707 mmHg 77%
    04:00 +19°C° 0.1 mm 1 mps 708 mmHg 74%
    05:00 +20°C° 0.1 mm 1 mps 708 mmHg 71%
    06:00 +21°C° 0.1 mm 1 mps 709 mmHg 68%
    07:00 +23°C° 0.1 mm 1 mps 709 mmHg 61%
    08:00 +25°C° 0.1 mm 1 mps 710 mmHg 55%
    09:00 +27°C° 0.1 mm 1 mps 710 mmHg 48%
    10:00 +27°C° 0.6 mm 1 mps 710 mmHg 48%
    11:00 +28°C° 0.6 mm 2 mps 710 mmHg 48%
    12:00 +28°C° 0.6 mm 2 mps 710 mmHg 47%
    13:00 +27°C° 1.1 mm 2 mps 709 mmHg 54%
    14:00 +26°C° 1.1 mm 3 mps 709 mmHg 61%
    15:00 +25°C° 1.1 mm 3 mps 709 mmHg 67%
    16:00 +24°C° 0.4 mm 2 mps 709 mmHg 74%
    17:00 +23°C° 0.4 mm 2 mps 709 mmHg 80%
    18:00 +21°C° 0.4 mm 2 mps 709 mmHg 87%
    19:00 +21°C° 0.2 mm 1 mps 709 mmHg 90%
    20:00 +20°C° 0.2 mm 1 mps 709 mmHg 92%
    21:00 +19°C° 0.2 mm 1 mps 709 mmHg 95%
    22:00 +19°C° 0 mm 1 mps 709 mmHg 95%
    23:00 +19°C° 0 mm 1 mps 709 mmHg 95%
    Show more